User: anonymous   Login
Location: Unspecified
(0.0000°N, 0.0000°E)
Time: 18:07:28
(UTC+00:00)
Language:

Meteor 2-13 - Orbit

View from above orbital plane
View from above orbital plane
View from above satellite
View from above satellite

Ground track
Ground track

The orbit data is extracted from the following two-line orbital elements,

1 16408U 85119A   18110.13563970  .00000013  00000-0 -12251-5 0  9999
2 16408  82.5332 109.4602 0014992 217.1402 142.8723 13.85347648633635
Epoch (UTC): 20 April 2018 03:15:19
Eccentricity: 0.0014992
inclination: 82.5332°
perigee height: 934 km
apogee height: 956 km
right ascension of ascending node: 109.4602°
argument of perigee: 217.1402°
revolutions per day: 13.85347648
mean anomaly at epoch: 142.8723°
orbit number at epoch: 63363

The dashed part of the orbit path shows where the satellite is in the earth's shadow,  

DLR